Location: Alfortville
(48.8058°N, 2.4204°E)
Time: 18:00:14
(UTC+00:00)

Meteor 1-19 Rocket - Pass Details

Date: 15 December 2023
Orbit: 806 x 928 km, 81.2° (Epoch: 04 March)

Event Time Altitude Azimuth Distance (km) Brightness Sun altitude
Rises 20:19:03 0° 236° (SW) 3,539 7.9 -42.3°
Reaches altitude 10° 20:22:10 10° 252° (WSW) 2,615 7.2 -42.8°
Enters shadow 20:26:06 21° 293° (WNW) 1,960 6.5 -43.4°
